www.pogodaiklimat.ru

Погода и климат >> Архив погоды >> Индия >> Мадхья-Прадеш >> Сагар


ПОГОДА в Сагаре

  • Прогноз погоды в Сагаре
  • Монитор погоды в Сагаре

АРХИВ ПОГОДЫ в Сагаре

Время (UTC), дата Ветер
(напр.,м/с)
 
Видим.   Явления Облачность Т
(С)
Тd
(С)
f
(%)
Тe
(С)
Тes
(С)
Комфортность P
(гПа)
Po
(гПа)
Тmin
(С)
Tmax
(С)
R
(мм)
R24
(мм)
S
(см)
03 20.05 ЮВ 1 10 км ясно +34.8 +10.8 23 +34 +45 очень
жарко
1007.0 948.0 +26.5
06 20.05 штиль 0 10 км 3/3 750 м
[Cu hum]
+38.2 +10.5 19 +37 +57 опасность
солнечного
удара
1006.3 948.1
09 20.05 СВ 1 10 км 4/4 600 м
[Cu Sc]
+41.0 +10.2 16 +40 +52 опасность
солнечного
удара
1002.9 945.2
12 20.05 штиль 0 10 км 4/4 600 м
[Cu Sc]
+39.8 +9.0 16 +38 +40 очень
жарко
1001.7 943.9 +41.5
15 20.05 штиль 0 4000 м ясно +34.0 +10.0 23 +33 +33 жарко 1004.2 945.1
18 20.05 штиль 0 4000 м ясно +32.2 +8.5 23 +31 +31 жарко 1005.2 945.9
21 20.05 штиль 0 4000 м ясно +31.8 +6.0 20 +30 +30 жарко 1003.6 944.2
00 21.05 штиль 0 4000 м ясно +31.0 +6.9 22 +30 +30 жарко 1004.5 944.9
03 21.05 Ю 1 10 км ясно +35.6 +6.7 17 +33 +44 жарко 1005.1 946.4 +29.4
06 21.05 штиль 0 10 км ясно +41.4 +11.0 16 +40 +69 опасность
солнечного
удара
1003.9 946.3
09 21.05 штиль 0 10 км 5/3 750 м
[Cu med, cong Ac trans]
+42.4 +8.9 14 +41 +53 опасность
перегрева
1001.2 944.0
12 21.05 штиль 0 10 км 4/0
[Ac trans]
+40.4 +11.8 18 +39 +42 очень
жарко
1000.1 942.6 +43.0
15 21.05 штиль 0 4000 м 1/0
[Ac trans]
+36.2 +10.6 21 +35 +35 очень
жарко
1002.0 943.6
18 21.05 штиль 0 4000 м 4/3 600 м
[Sc Ac trans]
+34.6 +9.4 21 +33 +33 жарко 1003.2 944.4
21 21.05 штиль 0 4000 м ясно +30.6 +11.4 31 +31 +31 жарко 1002.7 943.1
00 22.05 штиль 0 4000 м 3/0
[Ac trans]
+27.8 +11.4 36 +29 +29 жарко 1003.6 943.4
03 22.05 ЮВ 1 10 км ясно +35.4 +11.8 24 +35 +45 очень
жарко
1002.7 944.1 +26.0
06 22.05 штиль 0 10 км ясно +40.2 +11.4 18 +39 +68 опасность
солнечного
удара
1001.8 944.2
09 22.05 СЗ 1 10 км 5/5 600 м
[Cu Sc]
+43.2 +8.8 13 +41 +51 опасность
перегрева
998.4 941.6
12 22.05 СЗ 1 10 км 3/0
[Ac trans]
+41.4 +8.1 14 +39 +42 очень
жарко
997.1 940.0 +43.8
15 22.05 штиль 0 4000 м ясно +37.2 +13.3 24 +37 +37 очень
жарко
1000.5 942.4
18 22.05 штиль 0 4000 м 3/0
[Ac trans]
+33.6 +14.9 33 +35 +35 душно 1001.7 942.9
21 22.05 штиль 0 4000 м ясно +33.0 +11.8 27 +33 +33 жарко 1001.6 942.6
00 23.05 штиль 0 4000 м ясно +29.4 +12.4 35 +30 +30 жарко 1001.9 942.2
03 23.05 СЗ 1 10 км ясно +33.4 +13.8 31 +35 +45 душно 1003.2 944.2 +27.6
06 23.05 СЗ 1 10 км ясно +40.0 +10.5 17 +39 +66 опасность
солнечного
удара
1001.7 943.9
09 23.05 З 1 10 км 1/0
[Ac trans]
+42.0 +8.7 14 +40 +58 опасность
солнечного
удара
999.1 941.8
12 23.05 З 1 10 км 3/3 750 м
[Cu hum]
+41.6 +8.5 14 +40 +42 очень
жарко
997.8 940.6 +43.0
15 23.05 штиль 0 4000 м ясно +36.0 +15.9 30 +38 +38 очень
душно
1000.3 941.9
18 23.05 штиль 0 4000 м ясно +33.2 +15.2 34 +35 +35 душно 1001.2 942.4
21 23.05 штиль 0 4000 м ясно +32.2 +15.0 35 +34 +34 душно 1001.1 942.1
00 24.05 штиль 0 4000 м в посл. час дождь 5/3 750 м
[Cu med, cong Ac trans]
+31.0 +16.2 41 +34 +34 душно 1003.2 943.6 0.0
03 24.05 ЮЗ 1 10 км ясно +34.2 +14.1 30 +35 +45 очень
жарко
1003.4 944.6 +29.0 0.0
06 24.05 ЮЗ 1 10 км ясно +40.0 +14.1 22 +41 +66 опасность
перегрева
1002.1 944.3
09 24.05 ЮЗ 1 10 км 4/4 600 м
[Cu Sc]
+41.0 +12.9 19 +41 +52 опасность
перегрева
1000.0 942.5
12 24.05 СЗ 1 10 км 4/4 600 м
[Cu Sc]
+39.8 +14.7 23 +41 +42 опасность
перегрева
998.5 940.9 +42.3
15 24.05 штиль 0 4000 м ясно +36.6 +15.0 28 +38 +38 очень
душно
1000.8 942.5
18 24.05 штиль 0 4000 м ясно +32.6 +16.0 37 +35 +35 душно 1002.3 943.1
21 24.05 штиль 0 4000 м ясно +31.0 +14.2 36 +33 +33 душно 1002.0 942.6
00 25.05 штиль 0 4000 м ясно +29.0 +16.7 47 +32 +32 душно 1003.1 943.1
03 25.05 СВ 1 10 км ясно +34.6 +15.1 31 +36 +47 душно 1004.1 945.2 +27.4
06 25.05 штиль 0 10 км 1/1 750 м
[Cu hum]
+38.6 +15.5 26 +40 +66 опасность
солнечного
удара
1002.5 944.5
09 25.05 ЮЗ 1 10 км 6/6 600 м
[Cu Sc]
+39.4 +12.6 20 +39 +47 очень
жарко
1000.3 942.6
12 25.05 штиль 0 10 км 5/3 750 м
[Cu med, cong Ac trans]
+39.0 +14.3 23 +40 +41 очень
душно
998.8 941.0 +41.2
15 25.05 штиль 0 4000 м 1/0
[Ac trans]
+34.6 +15.5 32 +37 +37 очень
душно
1000.8 942.2
18 25.05 штиль 0 4000 м 1/0
[Ac trans]
+31.4 +16.0 40 +34 +34 душно 1001.9 942.7
21 25.05 штиль 0 4000 м ясно +30.2 +14.7 39 +32 +32 жарко 1000.8 941.4
00 26.05 штиль 0 4000 м ясно +29.8 +11.1 31 +30 +30 жарко 1002.0 942.3
03 26.05 штиль 0 10 км ясно +33.0 +11.8 27 +33 +45 жарко 1004.9 945.6 +26.8
06 26.05 ЮЗ 1 10 км ясно +38.8 +11.6 20 +38 +63 опасность
солнечного
удара
1002.2 944.2
09 26.05 СЗ 1 10 км 4/4 600 м
[Cu Sc]
+41.4 +11.0 16 +40 +52 опасность
солнечного
удара
999.3 942.0
12 26.05 штиль 0 10 км 3/0
[Ac trans]
+40.6 +11.1 17 +39 +42 очень
жарко
997.9 940.6 +42.2
15 26.05 штиль 0 4000 м ясно +35.0 +14.0 28 +36 +36 очень
жарко
1000.5 941.9
18 26.05 штиль 0 4000 м 3/0
[Ac trans]
+33.2 +11.6 27 +33 +33 жарко 1001.6 942.8
21 26.05 штиль 0 4000 м ясно +30.6 +10.5 29 +31 +31 жарко 1001.2 941.8
00 27.05 штиль 0 4000 м 4/1 600 м
[Sc Ac trans]
+30.4 +10.6 29 +30 +30 жарко 1001.3 941.9

 

Местоположение метеостанции Сагар (Мадхья-Прадеш, Индия): широта 23.85 долгота 78.75 высота над уровнем моря 551 м.

В архиве по умолчанию представлена погода в Сагаре за последнюю неделю. Архивные данные за месяц целиком и за предыдущие месяцы, начиная с января 2011 года, Вы можете получить, выбрав интересующий диапазон дат из раскрывающегося списка и нажав кнопку "Ввод!".


*Определитесь, кто Вы:
робот инопланетянин человек

Внимание! Время в таблицах - всемирное. Для получения местного времени необходимо прибавить поправку, которая равна 5.5 ч.

Смотрите также архив погоды в соседних городах и на ближайших метеорологических станциях:

Погода в Дамо (Мадхья-Прадеш, Индия) (71 км)
Погода в Тикамгархе (Мадхья-Прадеш, Индия) (103 км)
Погода в Нарсингпуре (Мадхья-Прадеш, Индия) (109 км)
Погода в Райсене (Мадхья-Прадеш, Индия) (111 км)
Погода в Джабалпере (Мадхья-Прадеш, Индия) (142 км)
Погода в Ноугонге (Мадхья-Прадеш, Индия) (153 км)
Погода в Бхопале (Мадхья-Прадеш, Индия) (156 км)
Погода в Хошангабаде (Мадхья-Прадеш, Индия) (156 км)
Погода в Пачмарае (Мадхья-Прадеш, Индия) (157 км)
Погода в Гуне (Мадхья-Прадеш, Индия) (170 км)

Пояснения к столбцам:

Ветер - указаны скорость ветра в м/с - средняя за 10 мин, порывы в срок и между сроками (в фигурных скобках) и направление, откуда дует ветер: С - северный, СВ - северо-восточный, В - восточный, ЮВ - юго-восточный, Ю - южный, ЮЗ - юго-западный, З - западный, СЗ - северо-западный.
Видимость - горизонтальная дальность видимости в метрах или километрах. При видимости от 1 до 10 км при отсутствии осадков обычно наблюдается дымка, при ухудшении видимости до 1 км и менее - туман. В сухую погоду видимость может ухудшаться дымом, пылью или мглою.
Явления - указаны атмосферные явления, наблюдавшиеся в срок или в последний час перед сроком; фигурными скобками обозначены явления, наблюдавшиеся между сроками (за 1-3 часа до срока); квадратными скобками обозначены град или гололедные отложения с указанием их диаметра в мм.
Облачность - указаны через наклонную черту общая и нижняя облачность в баллах и высота нижней границы облаков в метрах; квадратными скобками обозначены формы облаков: Ci - перистые, Cs - перисто-слоистые, Cc - перисто-кучевые, Ac - высококучевые, As - высокослоистые, Sc - слоисто-кучевые, Ns - слоисто-дождевые, Cu - кучевые, Cb - кучево-дождевые. Подробнее классификацию облаков см. в Атласе облаков (PDF).
T - Температура воздуха - температура, измеренная на высоте 2 м над землей.
Td - Температура точки росы - температура, при понижении до которой содержащийся в воздухе водяной пар достигнет насыщения.
f - Относительная влажность воздуха - влажноcть воздуха, измеренная на высоте 2 м над землей.
Te - Эффективная температура - температура, которую ощущает одетый по сезону человек в тени. Характеристика душности погоды. При расчете учитывается влияние влажности воздуха и скорости ветра на теплоощущения человека.
Tes - Эффективная температура на солнце - температура, которую ощущает человек, с поправкой на солнечный нагрев. Характеристика знойности погоды. Зависит от высоты солнца над горизонтом, облачности и скорости ветра. Ночью, в пасмурную погоду, а также при ветре 12 м/с и более поправка равна нулю.
P - Атмосферное давление - приведенное к уровню моря атмосферное давление.
Po - Атмосферное давление - измеренное на уровне метеостанции атмосферное давление.
Tmin - Минимальная температура - минимум температуры воздуха на высоте 2 м над землей.
Tmax - Максимальная температура - максимум температуры воздуха на высоте 2 м над землей.
R - Количество осадков - Количество выпавших осадков за период времени, мм. При наведении курсора мыши на число - период времени, за который выпало указанное количество осадков.
R24 - Количество осадков - Количество выпавших осадков за 24 часа, мм.
S - Снежный покров - Высота снежного покрова, см. При наведении курсора мыши на число - состояние снежного покрова и степень покрытия местности в баллах.